• In Belarus
  • List of Countries
  • For 7 days
  • Water Temperature
  • Satellite Maps
  • Weather Map
  • Weather Widgets
  • user-avatar
    Login

    Hourly Weather Porto Alegre

    Today, 16 December, Saturday

    Time Temperature Precipitation Wind Pressure Humidity
    00:00 +23°C° 0 mm 2 mps 756 mmHg 75%
    01:00 +23°C° 0 mm 2 mps 756 mmHg 78%
    02:00 +23°C° 0 mm 2 mps 756 mmHg 82%
    03:00 +21°C° 0 mm 2 mps 755 mmHg 85%
    04:00 +23°C° 0 mm 1 mps 755 mmHg 86%
    05:00 +23°C° 0 mm 1 mps 755 mmHg 87%
    06:00 +23°C° 0 mm 1 mps 755 mmHg 87%
    07:00 +26°C° 0 mm 1 mps 755 mmHg 76%
    08:00 +29°C° 0 mm 1 mps 756 mmHg 65%
    09:00 +32°C° 0 mm 1 mps 756 mmHg 54%
    10:00 +34°C° 0 mm 1 mps 755 mmHg 48%
    11:00 +36°C° 0 mm 1 mps 755 mmHg 42%
    12:00 +40°C° 0 mm 1 mps 754 mmHg 36%
    13:00 +40°C° 0 mm 1 mps 754 mmHg 35%
    14:00 +40°C° 0 mm 2 mps 753 mmHg 33%
    15:00 +40°C° 0 mm 2 mps 752 mmHg 32%
    16:00 +38°C° 0 mm 3 mps 752 mmHg 38%
    17:00 +36°C° 0 mm 3 mps 752 mmHg 45%
    18:00 +34°C° 0 mm 4 mps 752 mmHg 51%
    19:00 +33°C° 0 mm 4 mps 752 mmHg 57%
    20:00 +30°C° 0 mm 3 mps 752 mmHg 64%
    21:00 +28°C° 0 mm 3 mps 752 mmHg 70%
    22:00 +28°C° 0 mm 3 mps 752 mmHg 72%
    23:00 +27°C° 0 mm 2 mps 752 mmHg 73%

    Tomorrow, 17 December, Sunday

    Time Temperature Precipitation Wind Pressure Humidity
    00:00 +27°C° 0 mm 2 mps 752 mmHg 74%
    01:00 +27°C° 0 mm 2 mps 751 mmHg 73%
    02:00 +27°C° 0 mm 2 mps 751 mmHg 72%
    03:00 +27°C° 0 mm 2 mps 750 mmHg 71%
    04:00 +27°C° 0 mm 2 mps 751 mmHg 70%
    05:00 +27°C° 0 mm 2 mps 752 mmHg 69%
    06:00 +27°C° 0 mm 3 mps 753 mmHg 68%
    07:00 +30°C° 0 mm 3 mps 753 mmHg 61%
    08:00 +33°C° 0 mm 4 mps 754 mmHg 54%
    09:00 +35°C° 0 mm 5 mps 754 mmHg 48%
    10:00 +37°C° 0 mm 5 mps 754 mmHg 43%
    11:00 +40°C° 0 mm 5 mps 754 mmHg 38%
    12:00 +41°C° 0 mm 5 mps 754 mmHg 33%
    13:00 +39°C° 0.2 mm 5 mps 755 mmHg 41%
    14:00 +35°C° 0.2 mm 5 mps 755 mmHg 49%
    15:00 +33°C° 0.2 mm 5 mps 755 mmHg 56%
    16:00 +32°C° 0.2 mm 4 mps 756 mmHg 60%
    17:00 +30°C° 0.2 mm 3 mps 756 mmHg 64%
    18:00 +29°C° 0.2 mm 3 mps 757 mmHg 67%
    19:00 +28°C° 0 mm 4 mps 758 mmHg 71%
    20:00 +26°C° 0 mm 5 mps 758 mmHg 75%
    21:00 +23°C° 0 mm 6 mps 759 mmHg 79%
    22:00 +23°C° 0.1 mm 5 mps 759 mmHg 80%
    23:00 +22°C° 0.1 mm 5 mps 760 mmHg 80%

    Day after tomorrow, 18 December, Monday

    Time Temperature Precipitation Wind Pressure Humidity
    00:00 +22°C° 0.1 mm 4 mps 760 mmHg 81%
    01:00 +22°C° 0 mm 4 mps 760 mmHg 80%
    02:00 +22°C° 0 mm 4 mps 760 mmHg 80%
    03:00 +21°C° 0 mm 4 mps 760 mmHg 80%
    04:00 +21°C° 0 mm 4 mps 760 mmHg 79%
    05:00 +21°C° 0 mm 4 mps 760 mmHg 79%
    06:00 +21°C° 0 mm 4 mps 761 mmHg 78%
    07:00 +22°C° 0 mm 4 mps 761 mmHg 75%
    08:00 +22°C° 0 mm 4 mps 761 mmHg 72%
    09:00 +23°C° 0 mm 4 mps 762 mmHg 69%
    10:00 +23°C° 0 mm 4 mps 761 mmHg 67%
    11:00 +25°C° 0 mm 4 mps 761 mmHg 66%
    12:00 +25°C° 0 mm 4 mps 761 mmHg 64%
    13:00 +25°C° 0 mm 5 mps 761 mmHg 63%
    14:00 +26°C° 0 mm 5 mps 761 mmHg 62%
    15:00 +26°C° 0 mm 5 mps 760 mmHg 61%
    16:00 +25°C° 0 mm 5 mps 760 mmHg 64%
    17:00 +25°C° 0 mm 5 mps 760 mmHg 66%
    18:00 +23°C° 0 mm 5 mps 760 mmHg 69%
    19:00 +22°C° 0 mm 5 mps 760 mmHg 71%
    20:00 +22°C° 0 mm 4 mps 761 mmHg 74%
    21:00 +21°C° 0 mm 4 mps 761 mmHg 76%
    22:00 +21°C° 0 mm 4 mps 761 mmHg 77%
    23:00 +21°C° 0 mm 4 mps 761 mmHg 78%

    19 December, Tuesday

    Time Temperature Precipitation Wind Pressure Humidity
    00:00 +21°C° 0 mm 4 mps 762 mmHg 79%
    01:00 +20°C° 0 mm 4 mps 761 mmHg 80%
    02:00 +20°C° 0 mm 3 mps 760 mmHg 82%
    03:00 +20°C° 0 mm 3 mps 760 mmHg 83%
    04:00 +20°C° 0 mm 3 mps 760 mmHg 83%
    05:00 +21°C° 0 mm 3 mps 760 mmHg 83%
    06:00 +21°C° 0 mm 3 mps 760 mmHg 83%
    07:00 +22°C° 0 mm 3 mps 760 mmHg 79%
    08:00 +24°C° 0 mm 3 mps 760 mmHg 74%
    09:00 +26°C° 0 mm 4 mps 761 mmHg 70%
    10:00 +27°C° 0 mm 4 mps 760 mmHg 67%
    11:00 +28°C° 0 mm 4 mps 760 mmHg 64%
    12:00 +29°C° 0 mm 4 mps 760 mmHg 61%
    13:00 +29°C° 0 mm 5 mps 760 mmHg 61%
    14:00 +29°C° 0 mm 5 mps 759 mmHg 60%
    15:00 +29°C° 0 mm 5 mps 758 mmHg 59%
    16:00 +28°C° 0 mm 5 mps 759 mmHg 63%
    17:00 +27°C° 0 mm 5 mps 759 mmHg 66%
    18:00 +26°C° 0 mm 5 mps 759 mmHg 70%
    19:00 +25°C° 0 mm 5 mps 759 mmHg 73%
    20:00 +23°C° 0 mm 5 mps 759 mmHg 76%
    21:00 +22°C° 0 mm 4 mps 759 mmHg 79%
    22:00 +22°C° 0 mm 4 mps 759 mmHg 79%
    23:00 +22°C° 0 mm 4 mps 759 mmHg 80%

    20 December, Wednesday

    Time Temperature Precipitation Wind Pressure Humidity
    00:00 +22°C° 0 mm 3 mps 759 mmHg 81%
    01:00 +22°C° 0 mm 3 mps 758 mmHg 82%
    02:00 +22°C° 0 mm 3 mps 758 mmHg 84%
    03:00 +21°C° 0 mm 2 mps 757 mmHg 85%
    04:00 +22°C° 0 mm 3 mps 757 mmHg 85%
    05:00 +22°C° 0 mm 3 mps 757 mmHg 85%
    06:00 +22°C° 0 mm 3 mps 757 mmHg 85%
    07:00 +24°C° 0.7 mm 3 mps 757 mmHg 84%
    08:00 +25°C° 0.7 mm 3 mps 758 mmHg 82%
    09:00 +25°C° 0.7 mm 3 mps 758 mmHg 81%
    10:00 +26°C° 0.8 mm 3 mps 758 mmHg 79%
    11:00 +27°C° 0.8 mm 3 mps 757 mmHg 78%
    12:00 +28°C° 0.8 mm 2 mps 757 mmHg 76%
    13:00 +28°C° 1 mm 3 mps 757 mmHg 77%
    14:00 +28°C° 1 mm 3 mps 756 mmHg 79%
    15:00 +28°C° 1 mm 3 mps 756 mmHg 80%
    16:00 +27°C° 0.7 mm 3 mps 756 mmHg 83%
    17:00 +26°C° 0.7 mm 3 mps 756 mmHg 87%
    18:00 +25°C° 0.7 mm 3 mps 756 mmHg 90%
    19:00 +24°C° 0.2 mm 3 mps 756 mmHg 91%
    20:00 +24°C° 0.2 mm 3 mps 756 mmHg 92%
    21:00 +22°C° 0.2 mm 3 mps 756 mmHg 93%
    22:00 +22°C° 0.1 mm 3 mps 756 mmHg 94%
    23:00 +22°C° 0.1 mm 3 mps 755 mmHg 94%

    21 December, Thursday

    Time Temperature Precipitation Wind Pressure Humidity
    00:00 +23°C° 0.1 mm 2 mps 755 mmHg 94%
    01:00 +23°C° 0.1 mm 2 mps 755 mmHg 94%
    02:00 +23°C° 0.1 mm 2 mps 755 mmHg 95%
    03:00 +21°C° 0.1 mm 2 mps 754 mmHg 95%
    04:00 +21°C° 0.1 mm 2 mps 754 mmHg 95%
    05:00 +23°C° 0.1 mm 2 mps 755 mmHg 95%
    06:00 +23°C° 0.1 mm 2 mps 755 mmHg 95%
    07:00 +24°C° 0.1 mm 2 mps 755 mmHg 91%
    08:00 +25°C° 0.1 mm 2 mps 755 mmHg 86%
    09:00 +26°C° 0.1 mm 2 mps 755 mmHg 82%
    10:00 +29°C° 0.1 mm 2 mps 755 mmHg 72%
    11:00 +31°C° 0.1 mm 2 mps 754 mmHg 63%
    12:00 +34°C° 0.1 mm 3 mps 754 mmHg 53%
    13:00 +33°C° 0.4 mm 3 mps 754 mmHg 56%
    14:00 +33°C° 0.4 mm 4 mps 753 mmHg 59%
    15:00 +33°C° 0.4 mm 5 mps 753 mmHg 62%
    16:00 +32°C° 0.2 mm 4 mps 753 mmHg 64%
    17:00 +30°C° 0.2 mm 4 mps 753 mmHg 66%
    18:00 +29°C° 0.2 mm 4 mps 753 mmHg 68%
    19:00 +28°C° 0 mm 4 mps 753 mmHg 73%
    20:00 +26°C° 0 mm 3 mps 753 mmHg 79%
    21:00 +25°C° 0 mm 3 mps 754 mmHg 84%
    22:00 +24°C° 0 mm 2 mps 754 mmHg 87%
    23:00 +24°C° 0 mm 2 mps 753 mmHg 90%
    Show more